Tracking 20036 objects as of 21-Nov-2019
Live streaming from Space Station
objects crossing your sky now

DELTA 1 DEB


DELTA 1 DEB is no longer on orbit


NORAD ID: 7865
Int'l Code: 1972-058AM
Perigee: N/A
Apogee: N/A
Inclination: N/A
Period: N/A
Semi major axis: N/A
RCS: N/A
Launch date: July 23, 1972
Source: United States (US)
Launch site: AIR FORCE WESTERN TEST RANGE (AFWTR)
Decay date: 2019-01-02

Note: This is SATELLITE DEBRIS
aabbcc
Your satellite tracking list
Your tracking list is empty




NASA's NSSDC Master Catalog

Two Line Element Set (TLE):
1  7865U 72058AM  19001.87390353  .11960213  28043-5  17607-2 0  9995
2  7865  97.9304 173.0420 0010565 306.5814  53.4508 16.34412860292813
Source of the keplerian elements: AFSPC